No;Time;Interval(mi);Indoor Humidity(%);Indoor Temperature(�C);Outdoor Humidity(%);Outdoor Temperature(�C);Absolute Pressure(Hpa);Wind(m/s);Gust(m/s);Direction;Relative Pressure(Hpa);Dewpoint(�C);Windchill(�C);Total Rainfall(mm)
1;2014-06-01 00:02:01;10;59;20.2;75;13.0;1017.7;0.0;0.0;W;1020.9;8.7;13.0;880.2;
2;2014-06-01 00:12:01;10;59;20.2;74;12.7;1017.7;0.0;0.0;N;1020.9;8.2;12.7;880.2;
3;2014-06-01 00:22:01;10;58;20.1;72;12.6;1017.6;0.0;0.0;S;1020.8;7.7;12.6;880.2;
4;2014-06-01 00:32:01;10;58;20.1;71;12.6;1017.6;0.3;0.7;SE;1020.8;7.5;12.6;880.2;
5;2014-06-01 00:42:01;10;58;20.1;69;12.8;1017.4;0.0;0.3;SE;1020.6;7.3;12.8;880.2;
6;2014-06-01 00:52:01;10;58;20.1;69;12.8;1017.6;0.0;0.0;SE;1020.8;7.3;12.8;880.2;
7;2014-06-01 01:02:01;10;58;20.1;67;12.4;1017.5;0.0;0.0;S;1020.7;6.4;12.4;880.2;
8;2014-06-01 01:12:01;10;58;20.1;68;12.1;1017.6;0.0;0.0;SW;1020.8;6.4;12.1;880.2;
9;2014-06-01 01:22:01;10;58;20.1;68;12.0;1017.6;0.0;0.3;W;1020.8;6.3;12.0;880.2;
10;2014-06-01 01:32:00;10;58;20.1;67;12.0;1017.5;0.0;0.0;S;1020.7;6.1;12.0;880.2;
11;2014-06-01 01:42:00;10;58;20.1;68;11.9;1017.6;0.0;0.3;S;1020.8;6.2;11.9;880.2;
12;2014-06-01 01:52:00;10;58;20.0;67;11.9;1017.6;0.3;0.7;S;1020.8;6.0;11.9;880.2;
13;2014-06-01 02:02:00;10;57;20.0;65;12.0;1017.7;0.0;0.3;S;1020.9;5.6;12.0;880.2;
14;2014-06-01 02:12:00;10;57;20.0;64;12.0;1017.7;0.0;0.3;SE;1020.9;5.4;12.0;880.2;
15;2014-06-01 02:22:00;10;57;20.0;65;11.9;1017.6;0.0;0.3;S;1020.8;5.5;11.9;880.2;
16;2014-06-01 02:32:00;10;57;20.0;66;11.7;1017.7;0.0;0.0;SE;1020.9;5.6;11.7;880.2;
17;2014-06-01 02:42:01;10;57;20.0;68;11.4;1017.8;0.0;0.0;SW;1021.0;5.7;11.4;880.2;
18;2014-06-01 02:52:01;10;57;20.0;69;11.1;1017.6;0.0;0.0;SW;1020.8;5.6;11.1;880.2;
19;2014-06-01 03:02:01;10;57;20.0;72;10.8;1017.6;0.0;0.0;SW;1020.8;6.0;10.8;880.2;
20;2014-06-01 03:12:01;10;57;20.0;75;10.8;1017.7;0.0;0.0;SE;1020.9;6.5;10.8;880.2;
21;2014-06-01 03:22:01;10;57;20.0;76;10.8;1017.8;0.0;0.3;S;1021.0;6.7;10.8;880.2;
22;2014-06-01 03:32:01;10;57;20.0;77;10.9;1017.7;0.0;0.0;S;1020.9;7.0;10.9;880.2;
23;2014-06-01 03:42:01;10;57;20.0;77;10.7;1017.6;0.0;0.3;SE;1020.8;6.8;10.7;880.2;
24;2014-06-01 03:52:01;10;58;19.9;78;10.7;1017.6;0.0;0.0;SE;1020.8;7.0;10.7;880.2;
25;2014-06-01 04:02:01;10;58;19.9;79;10.8;1017.7;0.0;0.3;E;1020.9;7.3;10.8;880.2;
26;2014-06-01 04:12:01;10;58;19.9;80;10.7;1017.6;0.0;0.7;SW;1020.8;7.4;10.7;880.2;
27;2014-06-01 04:22:01;10;58;19.9;81;10.8;1017.7;0.0;0.3;SE;1020.9;7.7;10.8;880.2;
28;2014-06-01 04:32:01;10;58;19.9;82;10.8;1017.7;0.0;0.3;SSW;1020.9;7.9;10.8;880.2;
29;2014-06-01 04:42:01;10;58;19.9;82;11.0;1017.6;0.3;1.4;S;1020.8;8.0;11.0;880.2;
30;2014-06-01 04:52:01;10;58;19.9;82;11.1;1017.5;0.0;0.3;N;1020.7;8.1;11.1;880.2;
31;2014-06-01 05:02:01;10;58;19.9;82;11.2;1017.6;0.0;0.3;SW;1020.8;8.2;11.2;880.2;
32;2014-06-01 05:12:01;10;57;19.8;82;11.4;1017.6;1.0;1.4;E;1020.8;8.4;11.4;880.2;
33;2014-06-01 05:22:01;10;57;19.8;81;11.5;1017.5;0.0;0.7;SW;1020.7;8.4;11.5;880.2;
34;2014-06-01 05:32:01;10;58;19.8;81;11.7;1017.6;0.0;0.7;W;1020.8;8.5;11.7;880.2;
35;2014-06-01 05:42:01;10;58;19.8;80;11.9;1017.6;0.3;1.0;SE;1020.8;8.6;11.9;880.2;
36;2014-06-01 05:52:01;10;58;19.8;78;12.5;1017.6;0.0;0.3;W;1020.8;8.8;12.5;880.2;
37;2014-06-01 06:02:01;10;58;19.8;75;14.8;1017.6;0.0;0.0;SE;1020.8;10.4;14.8;880.2;
38;2014-06-01 06:12:01;10;58;19.8;61;17.8;1017.7;0.0;0.3;NE;1020.9;10.2;17.8;880.2;
39;2014-06-01 06:22:01;10;58;19.8;57;19.3;1017.7;0.0;0.3;S;1020.9;10.6;19.3;880.2;
40;2014-06-01 06:32:01;10;58;19.9;47;21.0;1017.8;0.0;0.0;E;1021.0;9.3;21.0;880.2;
41;2014-06-01 06:42:01;10;58;19.9;44;21.3;1017.7;0.3;1.0;NE;1020.9;8.5;21.3;880.2;
42;2014-06-01 06:52:01;10;58;19.9;42;21.6;1017.8;0.0;0.0;SE;1021.0;8.1;21.6;880.2;
43;2014-06-01 07:02:01;10;57;20.0;41;22.3;1017.6;0.3;1.0;W;1020.8;8.4;22.3;880.2;
44;2014-06-01 07:12:01;10;56;20.0;40;23.4;1017.6;0.0;1.4;E;1020.8;9.0;23.4;880.2;
45;2014-06-01 07:22:01;10;56;20.1;37;23.0;1017.5;0.7;1.0;E;1020.7;7.5;23.0;880.2;
46;2014-06-01 07:32:01;10;56;20.1;38;23.1;1017.5;0.0;0.3;N;1020.7;8.0;23.1;880.2;
47;2014-06-01 07:42:01;10;56;20.2;37;22.6;1017.5;0.7;1.0;NE;1020.7;7.2;22.6;880.2;
48;2014-06-01 07:52:01;10;56;20.2;42;21.4;1017.6;0.0;0.3;N;1020.8;8.0;21.4;880.2;
49;2014-06-01 08:02:01;10;56;20.3;43;20.7;1017.5;0.3;0.7;NE;1020.7;7.7;20.7;880.2;
50;2014-06-01 08:12:01;10;56;20.3;46;19.4;1017.5;0.0;0.3;SE;1020.7;7.5;19.4;880.2;
51;2014-06-01 08:22:01;10;56;20.3;50;19.4;1017.4;0.3;0.7;SE;1020.6;8.7;19.4;880.2;
52;2014-06-01 08:32:01;10;56;20.4;49;19.9;1017.5;1.0;2.7;NW;1020.7;8.9;19.9;880.2;
53;2014-06-01 08:42:01;10;56;20.4;49;19.7;1017.4;0.0;0.0;NE;1020.6;8.7;19.7;880.2;
54;2014-06-01 08:52:01;10;56;20.4;49;20.3;1017.4;0.3;1.0;E;1020.6;9.2;20.3;880.2;
55;2014-06-01 09:02:01;10;56;20.4;45;21.3;1017.5;0.3;1.4;SW;1020.7;8.9;21.3;880.2;
56;2014-06-01 09:12:01;10;56;20.5;44;21.8;1017.4;0.0;0.3;NE;1020.6;9.0;21.8;880.2;
57;2014-06-01 09:22:01;10;57;20.5;42;21.8;1017.4;0.7;1.4;S;1020.6;8.3;21.8;880.2;
58;2014-06-01 09:32:01;10;55;20.5;43;21.5;1017.5;0.0;0.3;SE;1020.7;8.4;21.5;880.2;
59;2014-06-01 09:42:01;10;55;20.3;43;22.0;1017.4;0.3;0.7;W;1020.6;8.8;22.0;880.2;
60;2014-06-01 09:52:01;10;55;20.4;42;22.5;1017.2;0.3;0.7;NE;1020.4;8.9;22.5;880.2;
61;2014-06-01 10:02:01;10;55;20.4;43;23.2;1017.4;0.0;0.7;N;1020.6;9.9;23.2;880.2;
62;2014-06-01 10:12:01;10;55;20.5;42;22.3;1017.4;0.7;2.0;NW;1020.6;8.8;22.3;880.2;
63;2014-06-01 10:22:01;10;55;20.5;44;21.8;1017.5;0.3;1.0;E;1020.7;9.0;21.8;880.2;
64;2014-06-01 10:32:01;10;55;20.5;45;21.8;1017.4;0.3;0.7;S;1020.6;9.3;21.8;880.2;
65;2014-06-01 10:42:01;10;55;20.6;44;22.5;1017.3;0.7;1.0;N;1020.5;9.6;22.5;880.2;
66;2014-06-01 10:52:01;10;55;20.6;44;22.5;1017.3;0.0;0.3;S;1020.5;9.6;22.5;880.2;
67;2014-06-01 11:02:01;10;55;20.5;42;24.3;1017.2;1.0;1.7;S;1020.4;10.6;24.3;880.2;
68;2014-06-01 11:12:01;10;55;20.4;43;23.9;1017.1;0.3;1.0;N;1020.3;10.5;23.9;880.2;
69;2014-06-01 11:22:01;10;55;20.3;44;24.5;1017.1;0.3;0.7;N;1020.3;11.4;24.5;880.2;
70;2014-06-01 11:32:01;10;55;20.3;42;24.1;1017.0;0.0;1.0;S;1020.2;10.4;24.1;880.2;
71;2014-06-01 11:42:01;10;55;20.2;40;24.3;1017.0;0.3;1.0;SE;1020.2;9.8;24.3;880.2;
72;2014-06-01 11:52:01;10;55;20.2;39;24.4;1016.9;0.3;0.7;NE;1020.1;9.5;24.4;880.2;
73;2014-06-01 12:02:01;10;55;20.2;42;24.2;1017.0;0.3;1.0;S;1020.2;10.5;24.2;880.2;
74;2014-06-01 12:12:01;10;56;20.2;42;22.0;1016.9;0.7;1.4;E;1020.1;8.5;22.0;880.2;
75;2014-06-01 12:22:01;10;57;20.3;47;21.1;1016.8;0.3;1.0;S;1020.0;9.3;21.1;880.2;
76;2014-06-01 12:32:01;10;57;20.3;48;21.1;1016.7;0.0;0.7;W;1019.9;9.7;21.1;880.2;
77;2014-06-01 12:42:01;10;57;20.3;47;21.5;1016.6;0.0;0.7;SE;1019.8;9.7;21.5;880.2;
78;2014-06-01 12:52:01;10;57;20.3;46;22.3;1016.6;0.0;0.3;S;1019.8;10.1;22.3;880.2;
79;2014-06-01 13:02:01;10;58;20.5;47;23.1;1016.5;0.0;0.7;NW;1019.7;11.2;23.1;880.2;
80;2014-06-01 13:12:01;10;58;20.6;47;23.4;1016.4;0.3;1.0;SW;1019.6;11.4;23.4;880.2;
81;2014-06-01 13:22:01;10;59;20.7;44;24.2;1016.4;0.7;1.0;SW;1019.6;11.2;24.2;880.2;
82;2014-06-01 13:32:01;10;59;20.7;45;23.4;1016.4;0.0;0.7;SE;1019.6;10.8;23.4;880.2;
83;2014-06-01 13:42:01;10;59;20.9;45;23.1;1016.4;0.0;0.7;SW;1019.6;10.5;23.1;880.2;
84;2014-06-01 13:52:01;10;59;20.9;43;22.7;1016.4;0.0;0.0;N;1019.6;9.5;22.7;880.2;
85;2014-06-01 14:02:01;10;59;21.0;43;22.8;1016.4;0.0;0.3;SE;1019.6;9.6;22.8;880.2;
86;2014-06-01 14:12:01;10;59;21.1;43;22.9;1016.3;0.0;0.3;N;1019.5;9.6;22.9;880.2;
87;2014-06-01 14:22:01;10;58;21.0;41;22.6;1016.3;0.3;1.0;ESE;1019.5;8.7;22.6;880.2;
88;2014-06-01 14:32:01;10;57;21.1;43;21.8;1016.1;0.0;0.7;SE;1019.3;8.7;21.8;880.2;
89;2014-06-01 14:42:01;10;57;21.1;44;21.5;1016.1;0.3;1.0;N;1019.3;8.7;21.5;880.2;
90;2014-06-01 14:52:01;10;57;21.2;46;21.4;1016.0;0.0;0.3;SE;1019.2;9.3;21.4;880.2;
91;2014-06-01 15:02:01;10;57;21.2;45;21.2;1016.0;0.0;0.3;E;1019.2;8.8;21.2;880.2;
92;2014-06-01 15:12:01;10;57;21.2;47;20.9;1016.1;0.7;1.7;SW;1019.3;9.2;20.9;880.2;
93;2014-06-01 15:22:01;10;56;21.1;46;20.8;1016.0;0.3;0.7;ESE;1019.2;8.7;20.8;880.2;
94;2014-06-01 15:32:01;10;56;21.1;46;21.3;1015.9;0.0;0.7;SE;1019.1;9.2;21.3;880.2;
95;2014-06-01 15:42:01;10;57;21.0;46;21.3;1015.8;0.0;0.7;N;1019.0;9.2;21.3;880.2;
96;2014-06-01 15:52:01;10;57;21.0;47;21.2;1015.8;0.0;0.3;NE;1019.0;9.4;21.2;880.2;
97;2014-06-01 16:02:01;10;57;20.9;50;21.0;1015.7;0.3;0.7;S;1018.9;10.2;21.0;880.2;
98;2014-06-01 16:12:01;10;56;21.0;54;20.6;1015.8;0.7;1.0;W;1019.0;11.0;20.6;880.2;
99;2014-06-01 16:22:01;10;57;20.9;54;20.3;1015.8;0.0;0.7;NW;1019.0;10.7;20.3;880.2;
100;2014-06-01 16:32:01;10;57;20.9;56;20.1;1015.8;0.7;1.0;NE;1019.0;11.0;20.1;880.2;
101;2014-06-01 16:42:01;10;56;20.9;58;19.6;1015.6;0.3;0.7;N;1018.8;11.1;19.6;880.2;
102;2014-06-01 16:52:01;10;56;20.8;58;19.3;1015.7;0.7;1.0;SE;1018.9;10.8;19.3;880.2;
103;2014-06-01 17:02:01;10;56;20.8;58;19.0;1015.6;0.0;0.0;NW;1018.8;10.5;19.0;880.2;
104;2014-06-01 17:12:01;10;56;20.7;59;18.8;1015.5;0.3;0.7;N;1018.7;10.6;18.8;880.2;
105;2014-06-01 17:22:01;10;56;20.7;61;18.7;1015.5;0.3;0.7;S;1018.7;11.0;18.7;880.2;
106;2014-06-01 17:32:01;10;56;20.7;60;18.9;1015.5;0.3;0.7;N;1018.7;11.0;18.9;880.2;
107;2014-06-01 17:42:01;10;56;20.7;57;18.8;1015.4;0.3;0.7;E;1018.6;10.1;18.8;880.2;
108;2014-06-01 17:52:01;10;57;20.7;57;18.7;1015.5;0.0;0.7;S;1018.7;10.0;18.7;880.2;
109;2014-06-01 18:02:01;10;57;20.7;57;18.7;1015.5;0.0;0.3;NW;1018.7;10.0;18.7;880.2;
110;2014-06-01 18:12:01;10;57;20.8;58;18.7;1015.5;0.0;0.3;ESE;1018.7;10.3;18.7;880.2;
111;2014-06-01 18:22:01;10;57;20.9;58;18.5;1015.6;0.0;0.3;SE;1018.8;10.1;18.5;880.2;
112;2014-06-01 18:32:01;10;56;21.0;59;18.3;1015.7;0.0;0.3;W;1018.9;10.1;18.3;880.2;
113;2014-06-01 18:42:01;10;56;20.9;59;18.2;1015.7;0.0;0.7;SW;1018.9;10.1;18.2;880.2;
114;2014-06-01 18:52:01;10;56;20.7;59;18.0;1015.6;0.0;0.3;SE;1018.8;9.9;18.0;880.2;
115;2014-06-01 19:02:01;10;55;20.7;59;17.9;1015.6;0.0;0.3;E;1018.8;9.8;17.9;880.2;
116;2014-06-01 19:12:01;10;55;20.6;61;17.8;1015.6;0.0;0.3;S;1018.8;10.2;17.8;880.2;
117;2014-06-01 19:22:01;10;55;20.6;61;17.6;1015.4;0.0;0.3;E;1018.6;10.0;17.6;880.2;
118;2014-06-01 19:42:01;10;56;20.5;62;17.4;1015.3;0.0;0.0;SE;1018.5;10.0;17.4;880.2;
119;2014-06-01 19:52:01;10;56;20.5;62;17.2;1015.5;0.0;0.3;NW;1018.7;9.9;17.2;880.2;
120;2014-06-01 20:02:01;10;57;20.5;62;17.1;1015.5;0.0;0.3;SW;1018.7;9.8;17.1;880.2;
121;2014-06-01 20:12:01;10;57;20.5;62;17.0;1015.5;0.0;0.7;N;1018.7;9.7;17.0;880.2;
122;2014-06-01 20:22:01;10;57;20.5;64;16.9;1015.7;0.0;0.3;S;1018.9;10.0;16.9;880.2;
123;2014-06-01 20:32:01;10;57;20.5;64;16.7;1015.7;0.0;0.3;SW;1018.9;9.9;16.7;880.2;
124;2014-06-01 20:42:01;10;58;20.5;64;16.7;1015.6;0.0;0.3;SW;1018.8;9.9;16.7;880.2;
125;2014-06-01 20:52:01;10;58;20.5;65;16.6;1015.7;0.0;0.7;SE;1018.9;10.0;16.6;880.2;
126;2014-06-01 21:02:01;10;58;20.5;65;16.6;1015.7;0.0;0.0;SE;1018.9;10.0;16.6;880.2;
127;2014-06-01 21:12:01;10;57;20.5;65;16.6;1015.7;0.0;0.3;NW;1018.9;10.0;16.6;880.2;
128;2014-06-01 21:22:01;10;58;20.5;66;16.7;1015.7;0.0;0.3;E;1018.9;10.3;16.7;880.2;
129;2014-06-01 21:32:01;10;58;20.5;68;16.6;1015.7;0.0;0.3;S;1018.9;10.7;16.6;880.2;
130;2014-06-01 21:42:01;10;58;20.5;69;16.5;1015.8;0.0;0.0;SE;1019.0;10.8;16.5;880.2;
131;2014-06-01 21:52:01;10;58;20.5;70;16.4;1015.8;0.0;0.0;S;1019.0;10.9;16.4;880.2;
132;2014-06-01 22:02:01;10;58;20.5;70;16.3;1015.7;0.0;0.3;SW;1018.9;10.8;16.3;880.2;
133;2014-06-01 22:12:01;10;58;20.5;72;16.2;1015.8;0.0;0.3;S;1019.0;11.1;16.2;880.2;
134;2014-06-01 22:22:01;10;58;20.5;72;16.1;1015.8;0.0;0.3;S;1019.0;11.0;16.1;880.2;
135;2014-06-01 22:32:01;10;58;20.5;75;15.9;1015.6;0.0;0.3;E;1018.8;11.5;15.9;880.2;
136;2014-06-01 22:42:01;10;58;20.5;75;15.8;1015.6;0.0;0.0;S;1018.8;11.4;15.8;880.2;
137;2014-06-01 22:52:01;10;58;20.5;76;15.7;1015.6;0.0;0.3;NE;1018.8;11.5;15.7;880.2;
138;2014-06-01 23:02:01;10;58;20.5;76;15.3;1015.6;0.0;0.3;S;1018.8;11.1;15.3;880.2;
139;2014-06-01 23:12:01;10;58;20.5;77;15.2;1015.6;0.0;0.0;SE;1018.8;11.2;15.2;880.2;
140;2014-06-01 23:22:01;10;58;20.5;79;14.9;1015.6;0.0;0.0;SE;1018.8;11.3;14.9;880.2;
141;2014-06-01 23:32:01;10;58;20.5;79;14.7;1015.6;0.0;0.0;SE;1018.8;11.1;14.7;880.2;
142;2014-06-01 23:42:01;10;58;20.5;79;14.5;1015.6;0.0;0.0;SE;1018.8;10.9;14.5;880.2;
143;2014-06-01 23:52:01;10;58;20.5;80;14.3;1015.5;0.0;0.0;SE;1018.7;10.9;14.3;880.2;
144;2014-06-02 00:02:01;10;58;20.5;81;14.3;1015.6;0.0;0.0;SE;1018.8;11.1;14.3;880.2;
145;2014-06-02 00:12:01;10;58;20.5;82;14.3;1015.5;0.0;0.0;SE;1018.7;11.3;14.3;880.2;
146;2014-06-02 00:22:01;10;58;20.5;82;14.1;1015.6;0.0;0.0;SE;1018.8;11.1;14.1;880.2;
147;2014-06-02 00:32:01;10;58;20.5;83;14.1;1015.4;0.0;0.3;S;1018.6;11.3;14.1;880.2;
148;2014-06-02 00:42:01;10;58;20.5;84;14.2;1015.4;0.0;0.0;S;1018.6;11.5;14.2;880.2;
149;2014-06-02 00:52:01;10;58;20.5;84;14.1;1015.4;0.0;0.0;N;1018.6;11.4;14.1;880.2;
150;2014-06-02 01:02:01;10;58;20.5;84;14.1;1015.5;0.0;0.0;S;1018.7;11.4;14.1;880.2;
151;2014-06-02 01:12:01;10;58;20.5;84;14.1;1015.4;0.0;0.0;S;1018.6;11.4;14.1;880.2;
152;2014-06-02 01:22:01;10;58;20.5;84;14.1;1015.4;0.0;0.0;S;1018.6;11.4;14.1;880.2;
153;2014-06-02 01:32:01;10;58;20.5;85;14.1;1015.3;0.0;0.0;S;1018.5;11.6;14.1;880.2;
154;2014-06-02 01:42:01;10;58;20.4;85;14.2;1015.3;0.0;0.0;S;1018.5;11.7;14.2;880.2;
155;2014-06-02 01:52:01;10;58;20.4;85;14.2;1015.2;0.0;0.0;S;1018.4;11.7;14.2;880.2;
156;2014-06-02 02:02:00;10;58;20.4;85;14.1;1015.2;0.0;0.0;S;1018.4;11.6;14.1;880.2;
157;2014-06-02 02:12:00;10;58;20.4;86;14.1;1015.0;0.0;0.0;S;1018.2;11.8;14.1;880.2;
158;2014-06-02 02:22:00;10;58;20.4;86;14.2;1014.9;0.0;0.0;S;1018.1;11.9;14.2;880.2;
159;2014-06-02 02:32:00;10;58;20.4;87;14.3;1014.9;0.0;0.0;S;1018.1;12.2;14.3;880.2;
160;2014-06-02 02:42:01;10;58;20.4;87;14.2;1014.9;0.0;0.0;NE;1018.1;12.1;14.2;880.2;
161;2014-06-02 02:52:01;10;58;20.4;87;14.2;1014.8;0.0;0.0;E;1018.0;12.1;14.2;880.2;
162;2014-06-02 03:02:01;10;58;20.4;87;14.1;1014.8;0.0;0.0;E;1018.0;12.0;14.1;880.2;
163;2014-06-02 03:12:01;10;58;20.4;88;13.9;1014.9;0.0;0.0;E;1018.1;11.9;13.9;880.2;
164;2014-06-02 03:22:01;10;58;20.4;88;13.9;1014.7;0.0;0.0;E;1017.9;11.9;13.9;880.2;
165;2014-06-02 03:32:01;10;58;20.4;89;13.9;1014.7;0.0;0.7;N;1017.9;12.1;13.9;880.2;
166;2014-06-02 03:42:01;10;58;20.4;89;13.8;1014.8;0.0;0.0;S;1018.0;12.0;13.8;880.2;
167;2014-06-02 03:52:01;10;58;20.4;89;13.7;1014.8;0.0;0.0;SE;1018.0;11.9;13.7;880.2;
168;2014-06-02 04:02:01;10;58;20.4;89;13.5;1014.9;0.0;0.0;S;1018.1;11.7;13.5;880.2;
169;2014-06-02 04:12:01;10;58;20.4;89;13.4;1014.8;0.0;0.0;S;1018.0;11.6;13.4;880.2;
170;2014-06-02 04:22:01;10;58;20.3;89;13.3;1014.9;0.0;0.3;NE;1018.1;11.5;13.3;880.2;
171;2014-06-02 04:32:01;10;58;20.3;90;13.3;1014.8;0.0;0.0;SE;1018.0;11.7;13.3;880.2;
172;2014-06-02 04:42:01;10;58;20.3;90;13.4;1015.0;0.0;0.3;SE;1018.2;11.8;13.4;880.2;
173;2014-06-02 04:52:01;10;59;20.3;90;13.5;1015.0;0.0;0.0;S;1018.2;11.9;13.5;880.2;
174;2014-06-02 05:02:01;10;59;20.3;89;13.5;1014.9;0.0;0.0;SE;1018.1;11.7;13.5;880.2;
175;2014-06-02 05:12:01;10;59;20.3;90;13.6;1015.0;0.0;0.3;SE;1018.2;12.0;13.6;880.2;
176;2014-06-02 05:22:01;10;59;20.3;89;13.9;1014.9;0.0;1.0;NE;1018.1;12.1;13.9;880.2;
177;2014-06-02 05:32:01;10;59;20.4;88;14.2;1014.9;0.0;0.3;S;1018.1;12.2;14.2;880.2;
178;2014-06-02 05:42:01;10;59;20.4;87;14.4;1015.0;0.0;0.0;S;1018.2;12.3;14.4;880.2;
179;2014-06-02 05:52:01;10;60;20.4;86;14.6;1015.1;0.0;0.0;S;1018.3;12.3;14.6;880.2;
180;2014-06-02 06:02:01;10;59;20.4;85;15.0;1015.0;0.0;0.0;SE;1018.2;12.5;15.0;880.2;
181;2014-06-02 06:12:01;10;60;20.4;83;15.8;1015.1;0.0;0.3;SE;1018.3;12.9;15.8;880.2;
182;2014-06-02 06:22:01;10;60;20.4;79;16.3;1015.1;0.0;0.3;SW;1018.3;12.6;16.3;880.2;
183;2014-06-02 06:32:01;10;60;20.4;78;16.1;1015.1;0.0;0.3;N;1018.3;12.3;16.1;880.2;
184;2014-06-02 06:42:01;10;60;20.4;78;15.8;1015.0;0.0;0.3;NE;1018.2;12.0;15.8;880.2;
185;2014-06-02 06:52:01;10;61;20.4;79;15.6;1015.1;0.0;0.3;NW;1018.3;12.0;15.6;880.2;
186;2014-06-02 07:02:01;10;61;20.5;80;15.6;1015.0;0.0;0.0;NE;1018.2;12.2;15.6;880.2;
187;2014-06-02 07:12:01;10;61;20.5;79;16.0;1015.0;0.0;0.0;NE;1018.2;12.4;16.0;880.2;
188;2014-06-02 07:22:01;10;61;20.5;70;19.8;1015.0;0.3;0.7;N;1018.2;14.2;19.8;880.2;
189;2014-06-02 07:32:01;10;61;20.6;63;20.8;1015.1;0.0;0.3;S;1018.3;13.5;20.8;880.2;
190;2014-06-02 07:42:01;10;61;20.6;59;22.6;1015.1;0.0;1.0;S;1018.3;14.2;22.6;880.2;
191;2014-06-02 07:52:01;10;61;20.7;53;22.5;1015.1;0.0;0.3;E;1018.3;12.4;22.5;880.2;
192;2014-06-02 08:02:01;10;61;20.7;52;22.8;1015.0;0.0;1.0;NW;1018.2;12.4;22.8;880.2;
193;2014-06-02 08:12:01;10;61;20.7;53;22.9;1015.1;0.0;0.3;E;1018.3;12.8;22.9;880.2;
194;2014-06-02 08:22:01;10;61;20.7;52;22.1;1015.1;0.3;1.0;SW;1018.3;11.8;22.1;880.2;
195;2014-06-02 08:32:01;10;61;20.7;54;21.6;1014.9;0.3;1.0;S;1018.1;11.9;21.6;880.2;
196;2014-06-02 08:42:01;10;61;20.7;54;22.4;1014.9;0.3;1.0;NE;1018.1;12.6;22.4;880.2;
197;2014-06-02 08:52:01;10;61;20.8;52;22.8;1014.7;0.0;0.3;S;1017.9;12.4;22.8;880.2;
198;2014-06-02 09:02:01;10;61;20.8;52;22.5;1014.7;0.3;1.0;SE;1017.9;12.1;22.5;880.2;
199;2014-06-02 09:12:01;10;61;20.9;51;23.0;1014.8;0.0;0.7;E;1018.0;12.3;23.0;880.2;
200;2014-06-02 09:22:01;10;61;20.8;49;23.3;1014.6;0.0;0.3;NE;1017.8;12.0;23.3;880.2;
201;2014-06-02 09:32:01;10;61;20.9;47;24.2;1014.6;0.0;0.7;SE;1017.8;12.2;24.2;880.2;
202;2014-06-02 09:42:01;10;61;20.9;47;23.9;1014.5;0.7;1.0;S;1017.7;11.9;23.9;880.2;
203;2014-06-02 09:52:01;10;61;20.9;46;24.1;1014.4;0.0;0.7;SW;1017.6;11.7;24.1;880.2;
204;2014-06-02 10:02:01;10;61;20.9;48;24.0;1014.4;0.0;0.3;SE;1017.6;12.3;24.0;880.2;
205;2014-06-02 10:12:01;10;61;20.9;47;23.7;1014.4;0.7;1.0;SE;1017.6;11.7;23.7;880.2;
206;2014-06-02 10:22:01;10;60;21.0;47;22.8;1014.3;0.0;0.7;W;1017.5;10.9;22.8;880.2;
207;2014-06-02 10:32:01;10;60;21.0;50;22.7;1014.3;0.0;0.7;SE;1017.5;11.7;22.7;880.2;
208;2014-06-02 10:42:01;10;60;21.0;47;22.9;1014.3;0.0;0.0;SE;1017.5;11.0;22.9;880.2;
209;2014-06-02 10:52:01;10;60;21.0;48;22.5;1014.3;0.0;0.7;E;1017.5;10.9;22.5;880.2;
210;2014-06-02 11:02:01;10;60;21.0;47;22.5;1014.3;0.3;1.0;SSW;1017.5;10.6;22.5;880.2;
211;2014-06-02 11:12:01;10;60;21.0;49;22.3;1014.2;0.3;0.7;NW;1017.4;11.1;22.3;880.2;
212;2014-06-02 11:22:01;10;59;21.0;49;22.0;1014.1;0.0;0.3;NW;1017.3;10.8;22.0;880.2;
213;2014-06-02 11:32:01;10;59;21.0;49;22.3;1014.1;0.0;0.3;SE;1017.3;11.1;22.3;880.2;
214;2014-06-02 11:42:01;10;59;21.1;47;22.7;1014.1;0.0;0.7;S;1017.3;10.8;22.7;880.2;
215;2014-06-02 11:52:01;10;59;21.0;48;23.3;1013.9;0.0;0.7;SE;1017.1;11.7;23.3;880.2;
216;2014-06-02 12:02:01;10;59;21.1;42;24.9;1013.9;0.7;1.4;SE;1017.1;11.1;24.9;880.2;
217;2014-06-02 12:12:01;10;59;21.1;40;26.3;1013.8;0.0;0.7;S;1017.0;11.6;26.3;880.2;
218;2014-06-02 12:22:01;10;59;21.1;38;26.9;1013.7;0.0;0.7;S;1016.9;11.4;26.9;880.2;
219;2014-06-02 12:32:01;10;59;21.1;38;25.8;1013.7;1.0;1.4;E;1016.9;10.4;25.8;880.2;
220;2014-06-02 12:42:01;10;59;21.1;41;25.1;1013.6;0.3;1.0;SE;1016.8;10.9;25.1;880.2;
221;2014-06-02 12:52:01;10;59;21.1;36;26.3;1013.6;0.0;0.3;SE;1016.8;10.0;26.3;880.2;
222;2014-06-02 13:02:01;10;59;21.1;41;24.7;1013.5;0.3;0.7;W;1016.7;10.6;24.7;880.2;
223;2014-06-02 13:12:01;10;59;21.1;39;25.0;1013.4;0.3;1.4;SE;1016.6;10.1;25.0;880.2;
224;2014-06-02 13:22:01;10;59;21.1;37;25.9;1013.4;0.3;1.0;N;1016.6;10.1;25.9;880.2;
225;2014-06-02 13:32:01;10;59;21.1;37;25.6;1013.4;0.0;0.3;W;1016.6;9.8;25.6;880.2;
226;2014-06-02 13:42:01;10;59;21.1;39;25.9;1013.4;0.7;1.4;S;1016.6;10.9;25.9;880.2;
227;2014-06-02 13:52:01;10;59;21.1;35;25.3;1013.4;0.0;1.0;W;1016.6;8.7;25.3;880.2;
228;2014-06-02 14:02:01;10;59;21.1;40;24.7;1013.2;0.3;1.4;SW;1016.4;10.2;24.7;880.2;
229;2014-06-02 14:12:01;10;59;21.2;44;24.0;1013.2;0.3;0.7;W;1016.4;11.0;24.0;880.2;
230;2014-06-02 14:22:01;10;59;21.1;45;23.6;1013.2;0.0;0.7;S;1016.4;11.0;23.6;880.2;
231;2014-06-02 14:32:01;10;59;21.2;46;23.5;1013.2;0.3;0.7;N;1016.4;11.2;23.5;880.2;
232;2014-06-02 14:42:01;10;59;21.2;47;23.1;1013.2;0.0;0.7;NW;1016.4;11.2;23.1;880.2;
233;2014-06-02 14:52:01;10;59;21.2;47;23.2;1013.3;0.3;0.7;N;1016.5;11.3;23.2;880.2;
234;2014-06-02 15:02:01;10;59;21.2;48;23.3;1013.2;1.4;2.4;N;1016.4;11.7;23.3;880.2;
235;2014-06-02 15:12:01;10;59;21.2;48;22.8;1013.2;0.0;0.0;SE;1016.4;11.2;22.8;880.2;
236;2014-06-02 15:22:01;10;59;21.2;50;22.7;1013.2;0.3;0.7;N;1016.4;11.7;22.7;880.2;
237;2014-06-02 15:32:01;10;59;21.2;49;22.8;1013.2;0.7;1.4;NE;1016.4;11.5;22.8;880.2;
238;2014-06-02 15:42:01;10;59;21.2;49;23.1;1013.3;0.0;0.7;SW;1016.5;11.8;23.1;880.2;
239;2014-06-02 15:52:01;10;58;21.1;48;23.4;1013.2;0.3;0.7;NW;1016.4;11.8;23.4;880.2;
240;2014-06-02 16:02:01;10;59;21.1;50;22.7;1013.2;0.3;1.0;W;1016.4;11.7;22.7;880.2;
241;2014-06-02 16:12:01;10;60;21.1;51;22.7;1013.1;0.0;0.7;S;1016.3;12.0;22.7;880.2;
242;2014-06-02 16:22:01;10;59;21.0;48;22.9;1013.0;0.0;0.3;NW;1016.2;11.3;22.9;880.2;
243;2014-06-02 16:32:01;10;59;20.9;47;23.2;1012.9;0.0;0.3;SW;1016.1;11.3;23.2;880.2;
244;2014-06-02 16:42:01;10;59;20.9;47;23.3;1012.8;0.3;1.0;SW;1016.0;11.3;23.3;880.2;
245;2014-06-02 16:52:01;10;59;20.9;48;22.8;1012.8;0.3;0.7;N;1016.0;11.2;22.8;880.2;
246;2014-06-02 17:02:01;10;58;20.9;46;22.8;1012.7;0.0;0.3;NW;1015.9;10.6;22.8;880.2;
247;2014-06-02 17:12:01;10;58;20.7;46;22.9;1012.7;0.0;0.7;NW;1015.9;10.7;22.9;880.2;
248;2014-06-02 17:22:01;10;58;20.7;46;22.5;1012.6;0.3;1.0;NE;1015.8;10.3;22.5;880.2;
249;2014-06-02 17:32:01;10;57;20.7;47;21.8;1012.6;0.3;0.7;N;1015.8;10.0;21.8;880.2;
250;2014-06-02 17:42:01;10;57;20.9;50;21.3;1012.6;0.0;0.3;E;1015.8;10.4;21.3;880.2;
251;2014-06-02 17:52:01;10;57;20.9;51;21.0;1012.7;0.0;0.3;W;1015.9;10.5;21.0;880.2;
252;2014-06-02 18:02:01;10;58;21.0;53;20.8;1012.7;0.3;1.0;NW;1015.9;10.9;20.8;880.2;
253;2014-06-02 18:12:01;10;58;21.1;53;20.5;1012.7;0.0;0.3;NE;1015.9;10.6;20.5;880.2;
254;2014-06-02 18:22:01;10;58;21.2;53;20.3;1012.7;0.0;0.3;NW;1015.9;10.4;20.3;880.2;
255;2014-06-02 18:32:01;10;58;21.2;53;20.2;1012.7;0.0;0.3;NW;1015.9;10.3;20.2;880.2;
256;2014-06-02 18:42:01;10;56;21.1;53;20.0;1012.5;0.0;0.0;SW;1015.7;10.1;20.0;880.2;
257;2014-06-02 18:52:01;10;56;21.0;54;19.7;1012.5;0.0;0.7;S;1015.7;10.1;19.7;880.2;
258;2014-06-02 19:02:01;10;56;20.9;55;19.4;1012.5;0.0;0.0;S;1015.7;10.1;19.4;880.2;
259;2014-06-02 19:12:01;10;56;20.9;55;19.0;1012.5;0.0;0.0;NW;1015.7;9.7;19.0;880.2;
260;2014-06-02 19:22:01;10;56;20.9;56;18.6;1012.3;0.0;0.0;NW;1015.5;9.6;18.6;880.2;
261;2014-06-02 19:32:01;10;57;20.7;56;18.3;1012.3;0.0;0.3;W;1015.5;9.4;18.3;880.2;
262;2014-06-02 19:42:01;10;57;20.7;57;18.0;1012.4;0.0;0.0;W;1015.6;9.4;18.0;880.2;
263;2014-06-02 19:52:01;10;58;20.7;58;17.9;1012.4;0.0;0.0;W;1015.6;9.5;17.9;880.2;
264;2014-06-02 20:02:01;10;58;20.7;59;17.8;1012.5;0.0;0.0;NW;1015.7;9.7;17.8;880.2;
265;2014-06-02 20:12:01;10;59;20.7;60;17.6;1012.5;0.0;0.0;NW;1015.7;9.7;17.6;880.2;
266;2014-06-02 20:22:01;10;59;20.7;61;17.3;1012.7;0.0;0.0;NW;1015.9;9.7;17.3;880.2;
267;2014-06-02 20:32:01;10;60;20.7;62;17.2;1012.8;0.0;0.0;SW;1016.0;9.9;17.2;880.2;
268;2014-06-02 20:42:01;10;60;20.7;64;17.1;1012.8;0.0;0.7;SW;1016.0;10.2;17.1;880.2;
269;2014-06-02 20:52:01;10;60;20.7;65;17.1;1012.7;0.3;1.0;W;1015.9;10.5;17.1;880.2;
270;2014-06-02 21:02:01;10;59;20.7;65;17.1;1012.7;0.0;0.3;SE;1015.9;10.5;17.1;880.2;
271;2014-06-02 21:12:01;10;60;20.7;66;16.9;1012.8;0.0;0.0;SW;1016.0;10.5;16.9;880.2;
272;2014-06-02 21:22:01;10;60;20.7;66;16.7;1012.8;0.0;0.3;SE;1016.0;10.3;16.7;880.2;
273;2014-06-02 21:32:01;10;60;20.7;67;16.6;1012.9;0.0;0.0;NW;1016.1;10.4;16.6;880.2;
274;2014-06-02 21:42:01;10;60;20.7;68;16.4;1012.8;0.0;0.0;S;1016.0;10.5;16.4;880.2;
275;2014-06-02 21:52:01;10;60;20.7;69;16.4;1012.8;0.0;0.0;S;1016.0;10.7;16.4;880.2;
276;2014-06-02 22:02:01;10;60;20.7;69;16.3;1012.7;0.0;0.0;S;1015.9;10.6;16.3;880.2;
277;2014-06-02 22:12:01;10;60;20.7;70;16.1;1012.8;0.0;0.0;SW;1016.0;10.6;16.1;880.2;
278;2014-06-02 22:22:01;10;60;20.7;71;15.9;1012.6;0.0;0.0;SW;1015.8;10.6;15.9;880.2;
279;2014-06-02 22:32:01;10;60;20.7;72;15.7;1012.7;0.0;0.0;SW;1015.9;10.7;15.7;880.2;
280;2014-06-02 22:42:01;10;60;20.7;73;15.5;1012.6;0.0;0.0;SW;1015.8;10.7;15.5;880.2;
281;2014-06-02 22:52:01;10;60;20.7;73;15.3;1012.5;0.0;0.0;SW;1015.7;10.5;15.3;880.2;
282;2014-06-02 23:02:01;10;60;20.7;75;15.0;1012.4;0.0;0.0;SW;1015.6;10.6;15.0;880.2;
283;2014-06-02 23:12:01;10;60;20.7;76;14.9;1012.5;0.0;0.0;SW;1015.7;10.7;14.9;880.2;